Terminal Aerodrome Forecast
Issued by NWS

Home | Current Version | Previous Version | Text Only | Print | Product List | Glossary On
Versions: 1 2 3 4 5 6 7 8 9 10 11 12 13 14 15 16 17 18 19 20 21 22 23 24
000
FTUS44 KFWD 311502 AAA
TAFGKY
TAF AMD
KGKY 311502Z 3115/0112 10008KT P6SM FEW060 SCT300
     FM311800 05009KT P6SM SCT060 SCT300
     FM010000 08007KT P6SM FEW080 SCT300=

USA.gov is the U.S. government's official web portal to all federal, state and local government web resources and services.